Regional Weather Roundup
Issued by NWS

Home | Current Version | Previous Version | Graphics & Text | Print | Product List | Glossary On
Versions: 1 2 3 4 5 6 7 8 9 10 11 12 13 14 15 16 17 18 19 20 21 22 23 24 25 26 27
000
ASUS45 KTFX 221410
RWRMT
MONTANA REGIONAL WEATHER ROUNDUP
NATIONAL WEATHER SERVICE GREAT FALLS MT
800 AM MDT MON MAY 22 2017

NOTE: "FAIR" INDICATES FEW OR NO CLOUDS BELOW 12000 FEET WITH NO
SIGNIFICANT WEATHER AND/OR OBSTRUCTIONS TO VISIBILITY.

MTZ001>007-043-221500-
WEST OF THE DIVIDE

CITY           SKY/WX    TMP DP  RH WIND       PRES   REMARKS
KALISPELL      SUNNY     53  44  71 N5        30.23R
MISSOULA       SUNNY     48  43  82 SW5       30.28R
BUTTE          SUNNY     38  32  79 SE3       30.30S
MULLAN PASS    SUNNY     51  35  54 NW5       30.32R
ANACONDA         N/A     48  36  61 NE3       30.28S
DEER LODGE       N/A     46  37  71 CALM      30.31R
EUREKA           N/A     50  43  76 CALM      30.26R
HAMILTON         N/A     54  37  54 SE5       30.27S
LIBBY            N/A     50  45  81 SE3       30.25S
PLAINS           N/A     47  42  82 CALM      30.24
RONAN            N/A     54  43  66 CALM      30.25S
$$

MTZ008-052>055-221500-
SOUTHWEST MONTANA

CITY           SKY/WX    TMP DP  RH WIND       PRES   REMARKS
BOZEMAN        MOSUNNY   48  39  71 CALM      30.25S
DILLON         SUNNY     47  35  63 SW10      30.27F
W YELLOWSTONE  CLOUDY    36  32  87 CALM      30.33S
ENNIS          SUNNY     45  37  76 CALM      30.33S
THREE FORKS      N/A     47  43  86 W1        30.21S
TWIN BRIDGES     N/A     42  33  70 SE1       30.23
$$

MTZ009-010-012-014-046-048-049-054-221500-
EAST SLOPES AND CENTRAL MONTANA

CITY           SKY/WX    TMP DP  RH WIND       PRES   REMARKS
CUT BANK       PTSUNNY   53  38  56 NE3       30.21R
GREAT FALLS    CLOUDY    52  42  69 CALM      30.22R
HELENA         CLOUDY    50  41  71 SW5       30.25R
AUGUSTA        PTSUNNY   52  38  59 W13       30.24R
BOWMANS CRNR     N/A     50  41  73 W6        30.22R
CHOTEAU          N/A     54  45  71 SW6       30.23S
FAIRFIELD        N/A     53  43  69 W3        30.20S
POWER          PTSUNNY   51  41  68 W5        30.21R
RAYNESFORD     PTSUNNY   55  42  61 CALM      30.23R
ULM            PTSUNNY   52  46  81 SE3       30.22R
$$

MTZ011-013-016-021-045-047-050-051-221500-
NORTH CENTRAL MONTANA

CITY           SKY/WX    TMP DP  RH WIND       PRES   REMARKS
HAVRE          MOSUNNY   57  41  55 SW3       30.15R
LEWISTOWN      CLOUDY    53  37  54 NW14      30.19R
N BAR RANCH    PTSUNNY   54  32  43 NW28G41   30.18S
CHINOOK          N/A     52  43  71 CALM      30.16R
DENTON         PTSUNNY   56  37  50 NW17G26   30.15R
FORT BENTON      N/A    N/A N/A N/A MISG      30.20R
GEYSER         PTSUNNY   57  34  41 NW14G28   30.22R
JUDITH GAP     PTSUNNY   52  35  54 N22G29    30.19R
STANFORD       LGT RAIN  53  37  54 N15G31    30.23R
WINIFRED         N/A     52  40  64 W7        30.16R
$$

MTZ017>020-022>027-061-062-221500-
NORTHEAST MONTANA

CITY           SKY/WX    TMP DP  RH WIND       PRES   REMARKS
GLASGOW        SUNNY     53  44  71 MISG      30.10R
JORDAN           N/A     48  41  76 N15G29    30.12R
SIDNEY         PTSUNNY   52  42  69 N10       30.03R
WOLF POINT     PTSUNNY   56  42  59 N17       30.07R
MALTA          MOSUNNY   55  45  67 NE7       30.13R
POPLAR           N/A     50  43  76 N7        30.07R
SCOBEY           N/A     48  37  65 N9        30.05
$$

MTZ028>42-056>058-221500-
SOUTHCENTRAL AND SOUTHEAST MONTANA

CITY           SKY/WX    TMP DP  RH WIND       PRES   REMARKS
BAKER          MOSUNNY   50  45  83 NW13G21   30.05R
BILLINGS       CLOUDY    54  40  59 W7        30.13S
LIVINGSTON     CLOUDY    51  39  63 W9        30.23R
MILES CITY     CLOUDY    50  42  74 N18G26    30.10R
BIG TIMBER     PTSUNNY   52  37  58 SW12      30.24S
EKALAKA          N/A     48  43  83 W10       30.03
FORSYTH          N/A     50  46  87 N10G16    30.11R
LAUREL           N/A     57  34  42 W12       30.12F
ROUNDUP          N/A     60  31  33 W22       30.02F
$$

REGIONAL REPORTS...DAKOTAS

CITY           SKY/WX    TMP DP  RH WIND       PRES   REMARKS
WILLISTON      CLOUDY    55  43  63 N8        30.02R
MINOT          MOSUNNY   54  40  59 NW12      29.97R
DICKINSON      CLOUDY    47  40  76 NW15      29.97R
BEACH            N/A     50  46  87 NW14      30.05S
TIOGA            N/A     52  37  58 N10       30.02R
WATFORD CITY     N/A     52  41  66 N6        30.00R
BISMARCK       CLOUDY    50  37  61 NW7       29.96R
GRAND FORKS    CLOUDY    53  46  77 N18       29.83S
FARGO          PTSUNNY   52  44  74 W14       29.85R
BUFFALO SD       N/A     53  45  74 NW16G25   29.95S
RAPID CITY     SUNNY     53  44  71 N8        30.02R
$$

REGIONAL REPORTS...WYOMING/IDAHO/WASHINGTON

CITY           SKY/WX    TMP DP  RH WIND       PRES   REMARKS
GILLETTE       CLOUDY    49  43  80 W15       30.09R
SHERIDAN       LGT RAIN  50  43  77 NW5       30.15R
BUFFALO WY     LGT RAIN  47  40  76 NW21G28   30.16R
CODY           CLOUDY    52  36  54 N14G25    30.22R
YELLOWSTONE LA   N/A     35  29  78 CALM      30.35S
IDAHO FALLS    MOSUNNY   44  38  79 N5        30.29R
SALMON         SUNNY     45  39  81 CALM      30.30F
BOISE          SUNNY     58  46  64 SE6       30.21R
SPOKANE        MOSUNNY   58  45  62 S7        30.20R
$$

REGIONAL REPORTS...ALBERTA

CITY           SKY/WX    TMP DP  RH WIND       PRES   REMARKS
EDMONTON       SUNNY     59  39  47 S13       30.15R
CALGARY        PTSUNNY   55  32  41 N6        30.21R
LETHBRIDGE     PTSUNNY   52  39  62 SW5       30.20R
MEDICINE HAT   MOSUNNY   55  41  58 NE6       30.17R
WATERTON GATE    N/A     52  36  54 S9          N/A
CARDSTON         N/A     52  37  58 S2          N/A
MILK RIVER       N/A     54  43  66 NW5         N/A
ONEFOUR          N/A     61  36  39 N16         N/A
$$

REGIONAL REPORTS...SASKATCHEWAN

CITY           SKY/WX    TMP DP  RH WIND       PRES   REMARKS
SWIFT CURRENT  SUNNY     52  41  66 N9        30.14S
REGINA         MOSUNNY   52  46  82 NW13      30.07R
SASKATOON      SUNNY     54  43  66 N12       30.16R
CYPRESS HILLS    N/A     50  34  53 N7          N/A
VAL MARIE        N/A     54  41  62 N14         N/A
ROCKGLEN         N/A     48  45  87 N13G20      N/A
ASSINIBOIA       N/A     55  43  62 S6          N/A
$$




USA.gov is the U.S. government's official web portal to all federal, state and local government web resources and services.